contact:dominique.lefevre@mio.osupytheas.fr, maurice.libes@osupytheas.fr, didier.mallarino@osupytheas.fr
Project:EMSO http://www.emso-fr.org/EMSO-France
Depth: 2436.0 m
Title:EMSO Ligure Ouest : Data MII capteur MICROCAT
DateTime_Computer,Latitude,Longitude,Temperature,Conductivity,Pressure,DateTime_Instrument
DateTime_Computer,Latitude,Longitude,degC,S m-1,dbar,DateTime_Instrument
2020-08-11T00:01:28Z,42.805,6.029,13.2971,4.59974,2470.18,2020-8-11T02:02:17Z
2020-08-11T00:04:31Z,42.805,6.029,13.2969,4.59975,2470.194,2020-8-11T02:05:20Z
2020-08-11T00:07:34Z,42.805,6.029,13.2973,4.59975,2470.24,2020-8-11T02:08:23Z
2020-08-11T00:10:37Z,42.805,6.029,13.2971,4.59974,2470.203,2020-8-11T02:11:26Z
2020-08-11T00:13:41Z,42.805,6.029,13.2975,4.59976,2470.194,2020-8-11T02:14:30Z
2020-08-11T00:16:44Z,42.805,6.029,13.2971,4.59974,2470.203,2020-8-11T02:17:33Z
2020-08-11T00:19:47Z,42.805,6.029,13.2970,4.59976,2470.203,2020-8-11T02:20:36Z
2020-08-11T00:22:50Z,42.805,6.029,13.2971,4.59973,2470.18,2020-8-11T02:23:39Z
2020-08-11T00:25:54Z,42.805,6.029,13.2969,4.59976,2470.217,2020-8-11T02:26:42Z
2020-08-11T00:28:57Z,42.805,6.029,13.2971,4.59975,2470.217,2020-8-11T02:29:46Z
2020-08-11T00:32:00Z,42.805,6.029,13.2967,4.59975,2470.217,2020-8-11T02:32:49Z
2020-08-11T00:35:03Z,42.805,6.029,13.2968,4.59976,2470.194,2020-8-11T02:35:52Z
2020-08-11T00:38:06Z,42.805,6.029,13.2971,4.59976,2470.217,2020-8-11T02:38:55Z
2020-08-11T00:41:10Z,42.805,6.029,13.2971,4.59974,2470.217,2020-8-11T02:41:58Z
2020-08-11T00:44:13Z,42.805,6.029,13.2973,4.59975,2470.203,2020-8-11T02:45:02Z
2020-08-11T00:47:16Z,42.805,6.029,13.2968,4.59976,2470.203,2020-8-11T02:48:05Z
2020-08-11T00:50:20Z,42.805,6.029,13.2972,4.59976,2470.203,2020-8-11T02:51:08Z
2020-08-11T00:53:23Z,42.805,6.029,13.2972,4.59974,2470.18,2020-8-11T02:54:12Z
2020-08-11T00:56:26Z,42.805,6.029,13.2971,4.59976,2470.227,2020-8-11T02:57:15Z
2020-08-11T00:59:29Z,42.805,6.029,13.2970,4.59976,2470.203,2020-8-11T03:00:18Z
2020-08-11T01:02:32Z,42.805,6.029,13.2972,4.59974,2470.18,2020-8-11T03:03:21Z
2020-08-11T01:05:36Z,42.805,6.029,13.2970,4.59973,2470.18,2020-8-11T03:06:24Z
2020-08-11T01:08:39Z,42.805,6.029,13.2969,4.59973,2470.194,2020-8-11T03:09:28Z
2020-08-11T01:11:42Z,42.805,6.029,13.2971,4.59975,2470.18,2020-8-11T03:12:31Z
2020-08-11T01:14:45Z,42.805,6.029,13.2976,4.59976,2470.194,2020-8-11T03:15:34Z
2020-08-11T01:17:49Z,42.805,6.029,13.2969,4.59975,2470.18,2020-8-11T03:18:38Z
2020-08-11T01:20:52Z,42.805,6.029,13.2972,4.59975,2470.18,2020-8-11T03:21:41Z
2020-08-11T01:23:55Z,42.805,6.029,13.2971,4.59974,2470.194,2020-8-11T03:24:44Z
2020-08-11T01:26:58Z,42.805,6.029,13.2970,4.59976,2470.156,2020-8-11T03:27:47Z
2020-08-11T01:30:02Z,42.805,6.029,13.2971,4.59976,2470.203,2020-8-11T03:30:51Z
2020-08-11T01:33:05Z,42.805,6.029,13.2973,4.59976,2470.156,2020-8-11T03:33:54Z
2020-08-11T01:36:08Z,42.805,6.029,13.2971,4.59975,2470.156,2020-8-11T03:36:57Z
2020-08-11T01:39:11Z,42.805,6.029,13.2967,4.59976,2470.194,2020-8-11T03:40:00Z
2020-08-11T01:42:15Z,42.805,6.029,13.2971,4.59977,2470.156,2020-8-11T03:43:04Z
2020-08-11T01:45:18Z,42.805,6.029,13.2969,4.59974,2470.194,2020-8-11T03:46:07Z
2020-08-11T01:48:21Z,42.805,6.029,13.2968,4.59975,2470.194,2020-8-11T03:49:10Z
2020-08-11T01:51:25Z,42.805,6.029,13.2971,4.59976,2470.18,2020-8-11T03:52:14Z
2020-08-11T01:54:28Z,42.805,6.029,13.2971,4.59978,2470.203,2020-8-11T03:55:17Z
2020-08-11T01:57:31Z,42.805,6.029,13.2972,4.59975,2470.156,2020-8-11T03:58:20Z
2020-08-11T02:00:35Z,42.805,6.029,13.2974,4.59978,2470.18,2020-8-11T04:01:23Z
2020-08-11T02:03:38Z,42.805,6.029,13.2970,4.59977,2470.156,2020-8-11T04:04:27Z
2020-08-11T02:06:41Z,42.805,6.029,13.2968,4.59976,2470.18,2020-8-11T04:07:30Z
2020-08-11T02:09:44Z,42.805,6.029,13.2973,4.59976,2470.194,2020-8-11T04:10:33Z
2020-08-11T02:12:48Z,42.805,6.029,13.2970,4.59976,2470.171,2020-8-11T04:13:36Z
2020-08-11T02:15:51Z,42.805,6.029,13.2972,4.59976,2470.156,2020-8-11T04:16:40Z
2020-08-11T02:18:54Z,42.805,6.029,13.2971,4.59981,2470.171,2020-8-11T04:19:43Z
2020-08-11T02:21:57Z,42.805,6.029,13.2970,4.59976,2470.133,2020-8-11T04:22:46Z
2020-08-11T02:25:01Z,42.805,6.029,13.2968,4.59976,2470.156,2020-8-11T04:25:50Z
2020-08-11T02:28:04Z,42.805,6.029,13.2971,4.59975,2470.171,2020-8-11T04:28:53Z
2020-08-11T02:31:07Z,42.805,6.029,13.2971,4.59978,2470.156,2020-8-11T04:31:56Z
2020-08-11T02:34:11Z,42.805,6.029,13.2968,4.59976,2470.147,2020-8-11T04:34:59Z
2020-08-11T02:37:14Z,42.805,6.029,13.2968,4.59975,2470.156,2020-8-11T04:38:03Z
2020-08-11T02:40:17Z,42.805,6.029,13.2969,4.59974,2470.11,2020-8-11T04:41:06Z
2020-08-11T02:43:20Z,42.805,6.029,13.2974,4.59978,2470.133,2020-8-11T04:44:09Z
2020-08-11T02:46:24Z,42.805,6.029,13.2971,4.59979,2470.156,2020-8-11T04:47:12Z
2020-08-11T02:49:27Z,42.805,6.029,13.2971,4.59978,2470.156,2020-8-11T04:50:16Z
2020-08-11T02:52:30Z,42.805,6.029,13.2970,4.59976,2470.171,2020-8-11T04:53:19Z
2020-08-11T02:55:33Z,42.805,6.029,13.2973,4.59976,2470.156,2020-8-11T04:56:22Z
2020-08-11T02:58:36Z,42.805,6.029,13.2971,4.59977,2470.133,2020-8-11T04:59:25Z
2020-08-11T03:01:40Z,42.805,6.029,13.2969,4.59976,2470.133,2020-8-11T05:02:29Z
2020-08-11T03:04:43Z,42.805,6.029,13.2971,4.59978,2470.133,2020-8-11T05:05:32Z
2020-08-11T03:07:46Z,42.805,6.029,13.2970,4.59976,2470.133,2020-8-11T05:08:35Z
2020-08-11T03:10:50Z,42.805,6.029,13.2970,4.59975,2470.124,2020-8-11T05:11:38Z
2020-08-11T03:13:53Z,42.805,6.029,13.2978,4.59977,2470.133,2020-8-11T05:14:42Z
2020-08-11T03:16:56Z,42.805,6.029,13.2970,4.59979,2470.133,2020-8-11T05:17:45Z
2020-08-11T03:20:00Z,42.805,6.029,13.2974,4.59978,2470.124,2020-8-11T05:20:48Z
2020-08-11T03:23:03Z,42.805,6.029,13.2969,4.59975,2470.156,2020-8-11T05:23:52Z
2020-08-11T03:26:06Z,42.805,6.029,13.2967,4.59978,2470.147,2020-8-11T05:26:55Z
2020-08-11T03:29:09Z,42.805,6.029,13.2970,4.59978,2470.11,2020-8-11T05:29:58Z
2020-08-11T03:32:13Z,42.805,6.029,13.2972,4.59978,2470.171,2020-8-11T05:33:01Z
2020-08-11T03:35:16Z,42.805,6.029,13.2970,4.59977,2470.11,2020-8-11T05:36:05Z
2020-08-11T03:38:19Z,42.805,6.029,13.2971,4.59978,2470.133,2020-8-11T05:39:08Z
2020-08-11T03:41:22Z,42.805,6.029,13.2973,4.59978,2470.133,2020-8-11T05:42:11Z
2020-08-11T03:44:25Z,42.805,6.029,13.2974,4.59980,2470.147,2020-8-11T05:45:14Z
2020-08-11T03:47:29Z,42.805,6.029,13.2968,4.59981,2470.133,2020-8-11T05:48:18Z
2020-08-11T03:50:32Z,42.805,6.029,13.2974,4.59976,2470.11,2020-8-11T05:51:21Z
2020-08-11T03:53:35Z,42.805,6.029,13.2967,4.59982,2470.147,2020-8-11T05:54:24Z
2020-08-11T03:56:38Z,42.805,6.029,13.2972,4.59983,2470.11,2020-8-11T05:57:27Z
2020-08-11T03:59:42Z,42.805,6.029,13.2972,4.59977,2470.133,2020-8-11T06:00:31Z
2020-08-11T04:02:45Z,42.805,6.029,13.2975,4.59978,2470.147,2020-8-11T06:03:34Z
2020-08-11T04:05:48Z,42.805,6.029,13.2968,4.59980,2470.133,2020-8-11T06:06:37Z
2020-08-11T04:08:51Z,42.805,6.029,13.2974,4.59979,2470.133,2020-8-11T06:09:40Z
2020-08-11T04:11:55Z,42.805,6.029,13.2971,4.59978,2470.1,2020-8-11T06:12:44Z
2020-08-11T04:14:58Z,42.805,6.029,13.2974,4.59978,2470.124,2020-8-11T06:15:47Z
2020-08-11T04:18:01Z,42.805,6.029,13.2970,4.59982,2470.133,2020-8-11T06:18:50Z
2020-08-11T04:21:04Z,42.805,6.029,13.2971,4.59978,2470.11,2020-8-11T06:21:53Z
2020-08-11T04:24:08Z,42.805,6.029,13.2971,4.59976,2470.133,2020-8-11T06:24:56Z
2020-08-11T04:27:11Z,42.805,6.029,13.2971,4.59976,2470.087,2020-8-11T06:28:00Z
2020-08-11T04:30:14Z,42.805,6.029,13.2974,4.59978,2470.133,2020-8-11T06:31:03Z
2020-08-11T04:33:17Z,42.805,6.029,13.2974,4.59976,2470.133,2020-8-11T06:34:06Z
2020-08-11T04:36:21Z,42.805,6.029,13.2971,4.59976,2470.1,2020-8-11T06:37:09Z
2020-08-11T04:39:24Z,42.805,6.029,13.2971,4.59980,2470.087,2020-8-11T06:40:13Z
2020-08-11T04:42:27Z,42.805,6.029,13.2970,4.59982,2470.147,2020-8-11T06:43:16Z
2020-08-11T04:45:30Z,42.805,6.029,13.2970,4.59979,2470.11,2020-8-11T06:46:19Z
2020-08-11T04:48:33Z,42.805,6.029,13.2968,4.59982,2470.156,2020-8-11T06:49:22Z
2020-08-11T04:51:37Z,42.805,6.029,13.2969,4.59981,2470.11,2020-8-11T06:52:26Z
2020-08-11T04:54:40Z,42.805,6.029,13.2966,4.59981,2470.11,2020-8-11T06:55:29Z
2020-08-11T04:57:43Z,42.805,6.029,13.2971,4.59980,2470.11,2020-8-11T06:58:32Z
2020-08-11T05:00:47Z,42.805,6.029,13.2969,4.59977,2470.11,2020-8-11T07:01:36Z
2020-08-11T05:03:50Z,42.805,6.029,13.2971,4.59977,2470.11,2020-8-11T07:04:39Z
2020-08-11T05:06:53Z,42.805,6.029,13.2968,4.59981,2470.133,2020-8-11T07:07:42Z
2020-08-11T05:09:56Z,42.805,6.029,13.2967,4.59978,2470.087,2020-8-11T07:10:45Z
2020-08-11T05:12:59Z,42.805,6.029,13.2969,4.59978,2470.124,2020-8-11T07:13:48Z
2020-08-11T05:16:03Z,42.805,6.029,13.2970,4.59976,2470.11,2020-8-11T07:16:52Z
2020-08-11T05:19:06Z,42.805,6.029,13.2968,4.59978,2470.11,2020-8-11T07:19:55Z
2020-08-11T05:22:09Z,42.805,6.029,13.2969,4.59978,2470.124,2020-8-11T07:22:58Z
2020-08-11T05:25:12Z,42.805,6.029,13.2972,4.59978,2470.11,2020-8-11T07:26:01Z
2020-08-11T05:28:16Z,42.805,6.029,13.2971,4.59978,2470.124,2020-8-11T07:29:04Z
2020-08-11T05:31:19Z,42.805,6.029,13.2971,4.59978,2470.087,2020-8-11T07:32:08Z
2020-08-11T05:34:22Z,42.805,6.029,13.2970,4.59982,2470.124,2020-8-11T07:35:11Z
2020-08-11T05:37:25Z,42.805,6.029,13.2968,4.59981,2470.063,2020-8-11T07:38:14Z
2020-08-11T05:40:29Z,42.805,6.029,13.2974,4.59978,2470.077,2020-8-11T07:41:17Z
2020-08-11T05:43:32Z,42.805,6.029,13.2973,4.59976,2470.087,2020-8-11T07:44:21Z
2020-08-11T05:46:35Z,42.805,6.029,13.2971,4.59976,2470.11,2020-8-11T07:47:24Z
2020-08-11T05:49:39Z,42.805,6.029,13.2971,4.59978,2470.087,2020-8-11T07:50:27Z
2020-08-11T05:52:42Z,42.805,6.029,13.2971,4.59975,2470.087,2020-8-11T07:53:31Z
2020-08-11T05:55:45Z,42.805,6.029,13.2971,4.59976,2470.087,2020-8-11T07:56:34Z
2020-08-11T05:58:48Z,42.805,6.029,13.2971,4.59975,2470.087,2020-8-11T07:59:37Z
2020-08-11T06:01:52Z,42.805,6.029,13.2971,4.59976,2470.087,2020-8-11T08:02:40Z
2020-08-11T06:04:55Z,42.805,6.029,13.2971,4.59976,2470.1,2020-8-11T08:05:44Z
2020-08-11T06:07:58Z,42.805,6.029,13.2972,4.59976,2470.04,2020-8-11T08:08:47Z
2020-08-11T06:11:02Z,42.805,6.029,13.2972,4.59978,2470.063,2020-8-11T08:11:50Z
2020-08-11T06:14:05Z,42.805,6.029,13.2967,4.59980,2470.063,2020-8-11T08:14:54Z
2020-08-11T06:17:08Z,42.805,6.029,13.2970,4.59978,2470.077,2020-8-11T08:17:57Z
2020-08-11T06:20:11Z,42.805,6.029,13.2974,4.59982,2470.1,2020-8-11T08:21:00Z
2020-08-11T06:23:14Z,42.805,6.029,13.2974,4.59981,2470.063,2020-8-11T08:24:03Z
2020-08-11T06:26:18Z,42.805,6.029,13.2968,4.59978,2470.087,2020-8-11T08:27:07Z
2020-08-11T06:29:21Z,42.805,6.029,13.2968,4.59981,2470.087,2020-8-11T08:30:10Z
2020-08-11T06:32:24Z,42.805,6.029,13.2972,4.59978,2470.053,2020-8-11T08:33:13Z
2020-08-11T06:35:28Z,42.805,6.029,13.2968,4.59981,2470.063,2020-8-11T08:36:16Z
2020-08-11T06:38:31Z,42.805,6.029,13.2969,4.59981,2470.1,2020-8-11T08:39:20Z
2020-08-11T06:41:34Z,42.805,6.029,13.2968,4.59981,2470.063,2020-8-11T08:42:23Z
2020-08-11T06:44:38Z,42.805,6.029,13.2973,4.59981,2470.087,2020-8-11T08:45:26Z
2020-08-11T06:47:41Z,42.805,6.029,13.2971,4.59980,2470.077,2020-8-11T08:48:30Z
2020-08-11T06:50:44Z,42.805,6.029,13.2971,4.59978,2470.087,2020-8-11T08:51:33Z
2020-08-11T06:53:47Z,42.805,6.029,13.2971,4.59984,2470.087,2020-8-11T08:54:36Z
2020-08-11T06:56:51Z,42.805,6.029,13.2970,4.59984,2470.04,2020-8-11T08:57:39Z
2020-08-11T06:59:54Z,42.805,6.029,13.2971,4.59982,2470.087,2020-8-11T09:00:43Z
2020-08-11T07:02:57Z,42.805,6.029,13.2972,4.59985,2470.04,2020-8-11T09:03:46Z
2020-08-11T07:06:01Z,42.805,6.029,13.2973,4.59978,2470.077,2020-8-11T09:06:49Z
2020-08-11T07:09:04Z,42.805,6.029,13.2968,4.59981,2470.124,2020-8-11T09:09:53Z
2020-08-11T07:12:07Z,42.805,6.029,13.2968,4.59984,2470.087,2020-8-11T09:12:56Z
2020-08-11T07:15:11Z,42.805,6.029,13.2971,4.59991,2470.1,2020-8-11T09:15:59Z
2020-08-11T07:18:14Z,42.805,6.029,13.2969,4.59990,2470.063,2020-8-11T09:19:03Z
2020-08-11T07:21:17Z,42.805,6.029,13.2968,4.59986,2470.1,2020-8-11T09:22:06Z
2020-08-11T07:24:20Z,42.805,6.029,13.2971,4.59996,2470.087,2020-8-11T09:25:09Z
2020-08-11T07:27:24Z,42.805,6.029,13.2971,4.59988,2470.087,2020-8-11T09:28:13Z
2020-08-11T07:30:27Z,42.805,6.029,13.2974,4.59986,2470.1,2020-8-11T09:31:16Z
2020-08-11T07:33:30Z,42.805,6.029,13.2971,4.59991,2470.1,2020-8-11T09:34:19Z
2020-08-11T07:36:33Z,42.805,6.029,13.3026,4.59986,2470.1,2020-8-11T09:37:22Z
2020-08-11T07:39:37Z,42.805,6.029,13.2972,4.60016,2470.087,2020-8-11T09:40:26Z
2020-08-11T07:42:40Z,42.805,6.029,13.2967,4.59988,2470.11,2020-8-11T09:43:29Z
2020-08-11T07:45:43Z,42.805,6.029,13.2968,4.59991,2470.077,2020-8-11T09:46:32Z
2020-08-11T07:48:47Z,42.805,6.029,13.2969,4.59986,2470.1,2020-8-11T09:49:35Z
2020-08-11T07:51:50Z,42.805,6.029,13.2972,4.59986,2470.11,2020-8-11T09:52:39Z
2020-08-11T07:54:53Z,42.805,6.029,13.2971,4.59986,2470.087,2020-8-11T09:55:42Z
2020-08-11T07:57:56Z,42.805,6.029,13.2968,4.59990,2470.087,2020-8-11T09:58:45Z
2020-08-11T08:00:59Z,42.805,6.029,13.2974,4.59991,2470.11,2020-8-11T10:01:48Z
2020-08-11T08:04:03Z,42.805,6.029,13.2985,4.60000,2470.1,2020-8-11T10:04:52Z
2020-08-11T08:07:06Z,42.805,6.029,13.2993,4.59999,2470.11,2020-8-11T10:07:55Z
2020-08-11T08:10:09Z,42.805,6.029,13.2983,4.60011,2470.124,2020-8-11T10:10:58Z
2020-08-11T08:13:13Z,42.805,6.029,13.3026,4.60019,2470.11,2020-8-11T10:14:01Z
2020-08-11T08:16:16Z,42.805,6.029,13.3033,4.60027,2470.124,2020-8-11T10:17:05Z
2020-08-11T08:19:19Z,42.805,6.029,13.2993,4.60009,2470.11,2020-8-11T10:20:08Z
2020-08-11T08:22:22Z,42.805,6.029,13.3000,4.60018,2470.087,2020-8-11T10:23:11Z
2020-08-11T08:25:26Z,42.805,6.029,13.2985,4.59999,2470.11,2020-8-11T10:26:15Z
2020-08-11T08:28:29Z,42.805,6.029,13.2979,4.60014,2470.124,2020-8-11T10:29:18Z
2020-08-11T08:31:32Z,42.805,6.029,13.3018,4.60000,2470.124,2020-8-11T10:32:21Z
2020-08-11T08:34:35Z,42.805,6.029,13.2981,4.60014,2470.124,2020-8-11T10:35:24Z
2020-08-11T08:37:39Z,42.805,6.029,13.2976,4.59999,2470.063,2020-8-11T10:38:28Z
2020-08-11T08:40:42Z,42.805,6.029,13.2974,4.60003,2470.11,2020-8-11T10:41:31Z
2020-08-11T08:43:45Z,42.805,6.029,13.2976,4.59999,2470.133,2020-8-11T10:44:34Z
2020-08-11T08:46:48Z,42.805,6.029,13.2971,4.60005,2470.11,2020-8-11T10:47:37Z
2020-08-11T08:49:52Z,42.805,6.029,13.2993,4.59991,2470.124,2020-8-11T10:50:41Z
2020-08-11T08:52:55Z,42.805,6.029,13.3009,4.60003,2470.096,2020-8-11T10:53:44Z
2020-08-11T08:55:58Z,42.805,6.029,13.3018,4.60022,2470.124,2020-8-11T10:56:47Z
2020-08-11T08:59:02Z,42.805,6.029,13.3012,4.60016,2470.147,2020-8-11T10:59:50Z
2020-08-11T09:02:05Z,42.805,6.029,13.2997,4.60013,2470.133,2020-8-11T11:02:54Z
2020-08-11T09:05:08Z,42.805,6.029,13.2998,4.59999,2470.073,2020-8-11T11:05:57Z
2020-08-11T09:08:11Z,42.805,6.029,13.2971,4.59996,2470.133,2020-8-11T11:09:00Z
2020-08-11T09:11:14Z,42.805,6.029,13.2974,4.59992,2470.133,2020-8-11T11:12:03Z
2020-08-11T09:14:18Z,42.805,6.029,13.2992,4.59998,2470.133,2020-8-11T11:15:06Z
2020-08-11T09:17:21Z,42.805,6.029,13.2979,4.60001,2470.11,2020-8-11T11:18:10Z
2020-08-11T09:20:24Z,42.805,6.029,13.3006,4.60010,2470.11,2020-8-11T11:21:13Z
2020-08-11T09:23:28Z,42.805,6.029,13.2991,4.60024,2470.124,2020-8-11T11:24:17Z
2020-08-11T09:26:31Z,42.805,6.029,13.3016,4.60015,2470.147,2020-8-11T11:27:20Z
2020-08-11T09:29:34Z,42.805,6.029,13.2980,4.60001,2470.133,2020-8-11T11:30:23Z
2020-08-11T09:32:37Z,42.805,6.029,13.2973,4.60008,2470.133,2020-8-11T11:33:26Z
2020-08-11T09:35:41Z,42.805,6.029,13.2976,4.59997,2470.124,2020-8-11T11:36:29Z
2020-08-11T09:38:44Z,42.805,6.029,13.2983,4.59995,2470.171,2020-8-11T11:39:33Z
2020-08-11T09:41:47Z,42.805,6.029,13.2972,4.60009,2470.147,2020-8-11T11:42:36Z
2020-08-11T09:44:50Z,42.805,6.029,13.3007,4.59999,2470.156,2020-8-11T11:45:39Z
2020-08-11T09:47:54Z,42.805,6.029,13.2979,4.59999,2470.156,2020-8-11T11:48:42Z
2020-08-11T09:50:57Z,42.805,6.029,13.2976,4.60006,2470.147,2020-8-11T11:51:46Z
2020-08-11T09:54:00Z,42.805,6.029,13.2976,4.59997,2470.133,2020-8-11T11:54:49Z
2020-08-11T09:57:03Z,42.805,6.029,13.2971,4.59999,2470.11,2020-8-11T11:57:52Z
2020-08-11T10:00:07Z,42.805,6.029,13.2980,4.59985,2470.133,2020-8-11T12:00:55Z
2020-08-11T10:03:10Z,42.805,6.029,13.2970,4.59988,2470.156,2020-8-11T12:03:59Z
2020-08-11T10:06:13Z,42.805,6.029,13.2970,4.59983,2470.156,2020-8-11T12:07:02Z
2020-08-11T10:09:16Z,42.805,6.029,13.2974,4.59990,2470.133,2020-8-11T12:10:05Z
2020-08-11T10:12:20Z,42.805,6.029,13.2971,4.59982,2470.147,2020-8-11T12:13:08Z
2020-08-11T10:15:23Z,42.805,6.029,13.2971,4.59986,2470.133,2020-8-11T12:16:12Z
2020-08-11T10:18:26Z,42.805,6.029,13.2968,4.59985,2470.156,2020-8-11T12:19:15Z
2020-08-11T10:21:30Z,42.805,6.029,13.2973,4.59990,2470.147,2020-8-11T12:22:19Z
2020-08-11T10:24:33Z,42.805,6.029,13.2967,4.59983,2470.133,2020-8-11T12:25:22Z
2020-08-11T10:27:36Z,42.805,6.029,13.2971,4.59980,2470.147,2020-8-11T12:28:25Z
2020-08-11T10:30:40Z,42.805,6.029,13.2973,4.59979,2470.203,2020-8-11T12:31:29Z
2020-08-11T10:33:43Z,42.805,6.029,13.2969,4.59982,2470.18,2020-8-11T12:34:32Z
2020-08-11T10:36:46Z,42.805,6.029,13.2970,4.59985,2470.133,2020-8-11T12:37:35Z
2020-08-11T10:39:50Z,42.805,6.029,13.2975,4.59978,2470.18,2020-8-11T12:40:39Z
2020-08-11T10:42:53Z,42.805,6.029,13.2971,4.59979,2470.147,2020-8-11T12:43:42Z
2020-08-11T10:45:56Z,42.805,6.029,13.2968,4.59980,2470.171,2020-8-11T12:46:45Z
2020-08-11T10:49:00Z,42.805,6.029,13.2969,4.59981,2470.18,2020-8-11T12:49:48Z
2020-08-11T10:52:03Z,42.805,6.029,13.2973,4.59980,2470.18,2020-8-11T12:52:52Z
2020-08-11T10:55:06Z,42.805,6.029,13.2971,4.59978,2470.18,2020-8-11T12:55:55Z
2020-08-11T10:58:10Z,42.805,6.029,13.2967,4.59976,2470.171,2020-8-11T12:58:58Z
2020-08-11T11:01:13Z,42.805,6.029,13.2971,4.59981,2470.18,2020-8-11T13:02:02Z
2020-08-11T11:04:16Z,42.805,6.029,13.2974,4.59978,2470.194,2020-8-11T13:05:05Z
2020-08-11T11:07:19Z,42.805,6.029,13.2968,4.59979,2470.156,2020-8-11T13:08:08Z
2020-08-11T11:10:23Z,42.805,6.029,13.2968,4.59981,2470.156,2020-8-11T13:11:12Z
2020-08-11T11:13:26Z,42.805,6.029,13.2974,4.59976,2470.156,2020-8-11T13:14:15Z
2020-08-11T11:16:29Z,42.805,6.029,13.2969,4.59976,2470.18,2020-8-11T13:17:18Z
2020-08-11T11:19:33Z,42.805,6.029,13.2974,4.59980,2470.18,2020-8-11T13:20:22Z
2020-08-11T11:22:36Z,42.805,6.029,13.2971,4.59977,2470.171,2020-8-11T13:23:25Z
2020-08-11T11:25:39Z,42.805,6.029,13.2973,4.59974,2470.166,2020-8-11T13:26:28Z
2020-08-11T11:28:42Z,42.805,6.029,13.2971,4.59976,2470.194,2020-8-11T13:29:31Z
2020-08-11T11:31:46Z,42.805,6.029,13.2968,4.59976,2470.133,2020-8-11T13:32:35Z
2020-08-11T11:34:49Z,42.805,6.029,13.2969,4.59978,2470.166,2020-8-11T13:35:38Z
2020-08-11T11:37:52Z,42.805,6.029,13.2971,4.59975,2470.171,2020-8-11T13:38:41Z
2020-08-11T11:40:55Z,42.805,6.029,13.2971,4.59976,2470.133,2020-8-11T13:41:44Z
2020-08-11T11:43:58Z,42.805,6.029,13.2969,4.59983,2470.171,2020-8-11T13:44:47Z
2020-08-11T11:47:02Z,42.805,6.029,13.2968,4.59977,2470.18,2020-8-11T13:47:51Z
2020-08-11T11:50:05Z,42.805,6.029,13.2974,4.59977,2470.18,2020-8-11T13:50:54Z
2020-08-11T11:53:09Z,42.805,6.029,13.2972,4.59974,2470.194,2020-8-11T13:53:57Z
2020-08-11T11:56:12Z,42.805,6.029,13.2971,4.59975,2470.18,2020-8-11T13:57:01Z
2020-08-11T11:59:15Z,42.805,6.029,13.2971,4.59976,2470.18,2020-8-11T14:00:04Z
2020-08-11T12:02:18Z,42.805,6.029,13.2971,4.59974,2470.194,2020-8-11T14:03:07Z
2020-08-11T12:05:21Z,42.805,6.029,13.2971,4.59976,2470.171,2020-8-11T14:06:10Z
2020-08-11T12:08:25Z,42.805,6.029,13.2971,4.59974,2470.203,2020-8-11T14:09:14Z
2020-08-11T12:11:28Z,42.805,6.029,13.2972,4.59974,2470.18,2020-8-11T14:12:17Z
2020-08-11T12:14:31Z,42.805,6.029,13.2971,4.59974,2470.18,2020-8-11T14:15:20Z
2020-08-11T12:17:35Z,42.805,6.029,13.2971,4.59976,2470.24,2020-8-11T14:18:23Z
2020-08-11T12:20:38Z,42.805,6.029,13.2968,4.59975,2470.156,2020-8-11T14:21:27Z
2020-08-11T12:23:41Z,42.805,6.029,13.2969,4.59976,2470.18,2020-8-11T14:24:30Z
2020-08-11T12:26:44Z,42.805,6.029,13.2971,4.59973,2470.166,2020-8-11T14:27:33Z
2020-08-11T12:29:47Z,42.805,6.029,13.2972,4.59974,2470.156,2020-8-11T14:30:36Z
2020-08-11T12:32:51Z,42.805,6.029,13.2974,4.59973,2470.156,2020-8-11T14:33:40Z
2020-08-11T12:35:54Z,42.805,6.029,13.2974,4.59976,2470.18,2020-8-11T14:36:43Z
2020-08-11T12:38:57Z,42.805,6.029,13.2972,4.59974,2470.18,2020-8-11T14:39:46Z
2020-08-11T12:42:00Z,42.805,6.029,13.2969,4.59975,2470.18,2020-8-11T14:42:49Z
2020-08-11T12:45:04Z,42.805,6.029,13.2973,4.59974,2470.171,2020-8-11T14:45:53Z
2020-08-11T12:48:07Z,42.805,6.029,13.2968,4.59975,2470.171,2020-8-11T14:48:56Z
2020-08-11T12:51:10Z,42.805,6.029,13.2968,4.59974,2470.18,2020-8-11T14:51:59Z
2020-08-11T12:54:13Z,42.805,6.029,13.2970,4.59974,2470.203,2020-8-11T14:55:02Z
2020-08-11T12:57:17Z,42.805,6.029,13.2969,4.59975,2470.18,2020-8-11T14:58:06Z
2020-08-11T13:00:20Z,42.805,6.029,13.2970,4.59973,2470.18,2020-8-11T15:01:09Z
2020-08-11T13:03:23Z,42.805,6.029,13.2971,4.59974,2470.194,2020-8-11T15:04:12Z
2020-08-11T13:06:26Z,42.805,6.029,13.2971,4.59973,2470.133,2020-8-11T15:07:15Z
2020-08-11T13:09:30Z,42.805,6.029,13.2971,4.59974,2470.171,2020-8-11T15:10:19Z
2020-08-11T13:12:33Z,42.805,6.029,13.2969,4.59974,2470.217,2020-8-11T15:13:22Z
2020-08-11T13:15:36Z,42.805,6.029,13.2972,4.59973,2470.156,2020-8-11T15:16:25Z
2020-08-11T13:18:39Z,42.805,6.029,13.2970,4.59975,2470.194,2020-8-11T15:19:28Z
2020-08-11T13:21:43Z,42.805,6.029,13.2973,4.59973,2470.194,2020-8-11T15:22:32Z
2020-08-11T13:24:46Z,42.805,6.029,13.2976,4.59973,2470.194,2020-8-11T15:25:35Z
2020-08-11T13:27:49Z,42.805,6.029,13.2970,4.59974,2470.156,2020-8-11T15:28:38Z
2020-08-11T13:30:53Z,42.805,6.029,13.2965,4.59973,2470.156,2020-8-11T15:31:42Z
2020-08-11T13:33:56Z,42.805,6.029,13.2969,4.59973,2470.156,2020-8-11T15:34:45Z
2020-08-11T13:36:59Z,42.805,6.029,13.2971,4.59974,2470.11,2020-8-11T15:37:48Z
2020-08-11T13:40:02Z,42.805,6.029,13.2967,4.59973,2470.133,2020-8-11T15:40:51Z
2020-08-11T13:43:06Z,42.805,6.029,13.2972,4.59974,2470.133,2020-8-11T15:43:55Z
2020-08-11T13:46:09Z,42.805,6.029,13.2972,4.59974,2470.171,2020-8-11T15:46:58Z
2020-08-11T13:49:12Z,42.805,6.029,13.2968,4.59973,2470.156,2020-8-11T15:50:01Z
2020-08-11T13:52:15Z,42.805,6.029,13.2971,4.59974,2470.133,2020-8-11T15:53:04Z
2020-08-11T13:55:19Z,42.805,6.029,13.2972,4.59974,2470.171,2020-8-11T15:56:08Z
2020-08-11T13:58:22Z,42.805,6.029,13.2971,4.59974,2470.171,2020-8-11T15:59:11Z
2020-08-11T14:01:25Z,42.805,6.029,13.2970,4.59973,2470.156,2020-8-11T16:02:14Z
2020-08-11T14:04:28Z,42.805,6.029,13.2971,4.59973,2470.147,2020-8-11T16:05:17Z
2020-08-11T14:07:32Z,42.805,6.029,13.2973,4.59973,2470.18,2020-8-11T16:08:21Z
2020-08-11T14:10:35Z,42.805,6.029,13.2972,4.59974,2470.147,2020-8-11T16:11:24Z
2020-08-11T14:13:38Z,42.805,6.029,13.2971,4.59973,2470.18,2020-8-11T16:14:27Z
2020-08-11T14:16:41Z,42.805,6.029,13.2970,4.59974,2470.156,2020-8-11T16:17:30Z
2020-08-11T14:19:45Z,42.805,6.029,13.2972,4.59973,2470.171,2020-8-11T16:20:33Z
2020-08-11T14:22:48Z,42.805,6.029,13.2971,4.59974,2470.133,2020-8-11T16:23:37Z
2020-08-11T14:25:51Z,42.805,6.029,13.2971,4.59973,2470.147,2020-8-11T16:26:40Z
2020-08-11T14:28:54Z,42.805,6.029,13.2969,4.59973,2470.133,2020-8-11T16:29:43Z
2020-08-11T14:31:57Z,42.805,6.029,13.2971,4.59975,2470.18,2020-8-11T16:32:46Z
2020-08-11T14:35:01Z,42.805,6.029,13.2968,4.59974,2470.147,2020-8-11T16:35:50Z
2020-08-11T14:38:04Z,42.805,6.029,13.2971,4.59974,2470.133,2020-8-11T16:38:53Z
2020-08-11T14:41:08Z,42.805,6.029,13.2968,4.59975,2470.18,2020-8-11T16:41:56Z
2020-08-11T14:44:11Z,42.805,6.029,13.2972,4.59974,2470.147,2020-8-11T16:45:00Z
2020-08-11T14:47:14Z,42.805,6.029,13.2974,4.59974,2470.147,2020-8-11T16:48:03Z
2020-08-11T14:50:17Z,42.805,6.029,13.2972,4.59973,2470.18,2020-8-11T16:51:06Z
2020-08-11T14:53:21Z,42.805,6.029,13.2967,4.59973,2470.156,2020-8-11T16:54:09Z
2020-08-11T14:56:24Z,42.805,6.029,13.2969,4.59973,2470.156,2020-8-11T16:57:13Z
2020-08-11T14:59:27Z,42.805,6.029,13.2968,4.59973,2470.156,2020-8-11T17:00:16Z
2020-08-11T15:02:30Z,42.805,6.029,13.2968,4.59975,2470.156,2020-8-11T17:03:19Z
2020-08-11T15:05:34Z,42.805,6.029,13.2968,4.59974,2470.133,2020-8-11T17:06:23Z
2020-08-11T15:08:37Z,42.805,6.029,13.2972,4.59975,2470.133,2020-8-11T17:09:26Z
2020-08-11T15:11:40Z,42.805,6.029,13.2974,4.59973,2470.156,2020-8-11T17:12:29Z
2020-08-11T15:14:44Z,42.805,6.029,13.2969,4.59974,2470.147,2020-8-11T17:15:33Z